Regional Weather Roundup
Issued by NWS

Home | Current Version | Previous Version | Text Only | Print | Product List | Glossary Off
Versions: 1 2 3 4 5 6 7 8 9 10 11 12 13 14 15 16 17 18 19 20 21 22 23 24 25 26 27 28 29 30 31 32 33 34 35 36 37 38 39 40 41 42 43 44 45 46 47 48 49 50

482
ASUS45 KTFX 220910
RWRMT
MONTANA REGIONAL WEATHER ROUNDUP
NATIONAL WEATHER SERVICE GREAT FALLS MT
200 AM MST WED FEB 22 2017

NOTE: "FAIR" INDICATES FEW OR NO CLOUDS BELOW 12000 FEET WITH NO
SIGNIFICANT WEATHER AND/OR OBSTRUCTIONS TO VISIBILITY.

MTZ001>007-043-221000-
WEST OF THE DIVIDE

CITY           SKY/WX    TMP DP  RH WIND       PRES   REMARKS
KALISPELL      CLOUDY    33  32  96 S5        29.88R
MISSOULA       CLOUDY    35  30  82 CALM      29.92R
BUTTE          CLOUDY    32  19  58 NW5       29.83S
MULLAN PASS    SNOW      23  22  96 CALM      29.84R VSB 1/2
ANACONDA         N/A     34  21  60 SW17      29.85R WCI  23
DEER LODGE       N/A     32  27  80 N7        29.88R WCI  26
EUREKA           N/A     28  28 100 CALM      29.88R
HAMILTON         N/A     37  25  60 S6        29.91R
LIBBY            N/A     32  32 100 CALM      29.90R VSB 1/2
PLAINS           N/A     34  29  82 CALM      29.94R
RONAN            N/A     34  32  92 SE1       29.95R
$$

MTZ008-052>055-221000-
SOUTHWEST MONTANA

CITY           SKY/WX    TMP DP  RH WIND       PRES   REMARKS
BOZEMAN        CLOUDY    39  21  48 W9        29.84R
DILLON         CLOUDY    33  16  49 SW9       29.86R WCI  25
W YELLOWSTONE  CLOUDY    27  25  93 SW13      29.88S WCI  16
ENNIS          CLOUDY    36  16  44 E10       29.88S WCI  28
THREE FORKS      N/A     39  39 100 SW8       29.85R
TWIN BRIDGES     N/A     33  22  64 N7        29.87R WCI  27
$$

MTZ009-010-012-014-046-048-049-054-221000-
EAST SLOPES AND CENTRAL MONTANA

CITY           SKY/WX    TMP DP  RH WIND       PRES   REMARKS
CUT BANK       FOG       28  27  96 W5        29.78R VSB 1/2
GREAT FALLS    LGT SNOW  32  31  96 W9        29.80R FOG     WCI  24
MALMSTROM AFB  CLOUDY    32  32 100 W9        29.81R WCI  24
HELENA         CLOUDY    39  25  57 W13       29.81R WCI  31
AUGUSTA        FOG       28  29 100 S6        29.79R VSB 5/16WCI  22
BOWMANS CRNR   FOG       29  29 100 S6        29.78R VSB 3/8 WCI  23
CHOTEAU          N/A     28  28 100 W6        29.81S WCI  22
CONRAD           N/A     30  30 100 N2        29.82S
POWER          FOG       31  31 100 W5        29.79R VSB 3/4
RAYNESFORD     LGT SNOW  32  31  98 W10       29.79R FOG     WCI  23
ULM            FLURRIES  32  32 100 MISG      29.81R
$$

MTZ011-013-016-021-045-047-050-051-221000-
NORTH CENTRAL MONTANA

CITY           SKY/WX    TMP DP  RH WIND       PRES   REMARKS
HAVRE          LGT SNOW  32  32 100 E8        29.80R FOG     WCI  25
LEWISTOWN      LGT SNOW  31  30  96 NW14      29.74R FOG     WCI  21
N BAR RANCH    MIX PCPN  34  30  86 NW14      29.73R WCI  24
CHINOOK          N/A     34  34 100 CALM      29.81R
DENTON         FLURRIES  32  31  98 NW16G30   29.73R WCI  21
FORT BENTON      N/A     34  32  93 N5        29.82R
GEYSER         FLURRIES  31  30  94 W14       29.76R WCI  21
GRASS RANGE    MOCLDY    36  33  92 W20G28    29.68R WCI  25
JUDITH GAP     LGT RAIN  32  29  89 N10       29.74R WCI  24
ROY            FOG       32  32  99 MISG      29.72R VSB 1/2
STANFORD       FLURRIES  31  30  96 NW16      29.75R WCI  20
WINIFRED       LGT RAIN  32 N/A N/A W13       29.74R VSB 3/8 WCI  22
$$

MTZ017>020-022>027-061-062-221000-
NORTHEAST MONTANA

CITY           SKY/WX    TMP DP  RH WIND       PRES   REMARKS
GLASGOW        LGT SNOW  32  30  92 VRB6      29.75S FOG     WCI  26
JORDAN           N/A     35  33  92 N7        29.70R WCI  29
SIDNEY         MIX PCPN  33  32  96 N9        29.73R FOG     WCI  25
WOLF POINT     LGT SNOW  35  32  88 NE7       29.76R FOG     WCI  29
PLENTYWOOD       N/A     32  28  86 N14       29.75R WCI  22
POPLAR           N/A     32  30  93 N8        29.75S WCI  25
SCOBEY           N/A     30  24  78 N9        29.75R WCI  22
$$

MTZ028>42-056>058-221000-
SOUTHCENTRAL AND SOUTHEAST MONTANA

CITY           SKY/WX    TMP DP  RH WIND       PRES   REMARKS
BAKER          LGT RAIN  36  35  96 MISG      29.68S
BILLINGS       MOCLDY    41  22  46 W10       29.74R
LIVINGSTON     CLOUDY    36  23  59 W23       29.79R WCI  24
MILES CITY     CLOUDY    36  33  89 NW10      29.69R WCI  28
BIG TIMBER     CLEAR     37  23  56 W29G37    29.77S WCI  25
EKALAKA          N/A     39  33  79 NW1       29.67F
FORSYTH          N/A     36  36 100 W5        29.70S
HARLOWTON      CLOUDY    36  26  66 W31G37    29.71F WCI  23
LAUREL           N/A     38  22  52 CALM      29.75S
$$

REGIONAL REPORTS...DAKOTAS

CITY           SKY/WX    TMP DP  RH WIND       PRES   REMARKS
WILLISTON      LGT SNOW  33  32  96 N9        29.73R FOG     WCI  25
MINOT          CLOUDY    34  32  92 N15       29.68F FOG     WCI  24
DICKINSON      CLOUDY    33  31  92 N3        29.63R
BEACH            N/A    N/A N/A N/A MISG        N/A
CROSBY         CLOUDY    32  32 100 N13       29.76S WCI  22
TIOGA          LGT SNOW  32  32 100 NE13      29.72R WCI  22
WATFORD CITY   CLOUDY    32  32 100 N7        29.71S FOG     WCI  26
BISMARCK       CLOUDY    31  30  96 CALM      29.64F FOG
GRAND FORKS    CLOUDY    33  29  85 NW12      29.69R FOG     WCI  24
FARGO          FOG       34  33  96 N12       29.65R VSB 1/4 WCI  25
BUFFALO SD       N/A     39  34  82 N8        29.58S
RAPID CITY     CLOUDY    43  36  76 W8        29.68F
$$

REGIONAL REPORTS...WYOMING/IDAHO/WASHINGTON

CITY           SKY/WX    TMP DP  RH WIND       PRES   REMARKS
GILLETTE       CLOUDY    42  33  70 SW14      29.73R
SHERIDAN       CLOUDY    45  19  35 SW29G37   29.70F
BUFFALO WY     CLOUDY    43  18  36 W17       29.76S
CODY           CLEAR     36  22  56 SW17G25   29.81S WCI  26
YELLOWSTONE LA   N/A     20  18  92 W3        29.87S
IDAHO FALLS    PTCLDY    32  28  85 S18       29.98R WCI  20
SALMON         CLOUDY    37  21  52 W6        29.91R
BOISE          PTCLDY    36  28  73 CALM      30.05S
SPOKANE        FOG       32  32 100 SW5       29.98R VSB 1
$$

REGIONAL REPORTS...ALBERTA

CITY           SKY/WX    TMP DP  RH WIND       PRES   REMARKS
EDMONTON       CLOUDY    25  21  86 N9        29.88R WCI  15
CALGARY        PTCLDY    23  19  86 N8        29.79R FOG     WCI  14
LETHBRIDGE     CLOUDY    32 N/A N/A NW2       29.79R
MEDICINE HAT   CLOUDY    34  32  93 E5        29.82R
CARDSTON         N/A     23  21  93 E1          N/A
MILK RIVER       N/A     28  28 100 SW1         N/A
$$

REGIONAL REPORTS...SASKATCHEWAN

CITY           SKY/WX    TMP DP  RH WIND       PRES   REMARKS
SWIFT CURRENT  CLOUDY    28  27  93 CALM      29.79R
REGINA         CLOUDY    28  23  80 N8        29.81R WCI  20
SASKATOON      CLOUDY    32  27  80 SW8       29.83S WCI  25
CYPRESS HILLS    N/A     27  25  93 N5          N/A
VAL MARIE        N/A     30  28  93 NE10        N/A  WCI  21
ROCKGLEN         N/A     28  27  93 N9          N/A  WCI  20
ASSINIBOIA       N/A     27  23  86 N12         N/A  WCI  16
$$




USA.gov is the U.S. government's official web portal to all federal, state and local government web resources and services.